HAWK-2B

Last updated on Fri Dec 29 2023 00:03:29 GMT+0000 (Coordinated Universal Time)

1 47508U 21006CZ 23361.66199544 .00007601 00000+0 34091-3 0 9995 2 47508 97.3597 51.1610 0009554 138.5546 221.6416 15.21448146161810
UTC large
Height (km)
Speed (km/s)
/
Latitude / Longitude
Inclination (degrees)
Orbital Period (minutes)
Azimuth
Elevation
Range (km)
Doppler Factor

Next 0 passes for location: London (51.5072 / 0.1276)

Sorry there are no passes over London.